TimeAKDT,TemperatureF,Dew PointF,Humidity,Sea Level PressureIn,VisibilityMPH,Wind Direction,Wind SpeedMPH,Gust SpeedMPH,PrecipitationIn,Events,Conditions,WindDirDegrees,DateUTC
12:21 AM,-14.8,-20.2,77,29.88,10.0,South,9.2,-,N/A,,Overcast,190,2014-04-06 08:21:00
12:48 AM,-16.6,-22.0,76,29.88,10.0,South,10.4,-,N/A,,Mostly Cloudy,190,2014-04-06 08:48:00
12:56 AM,-16.6,-22.0,76,29.88,10.0,South,10.4,-,N/A,,Mostly Cloudy,190,2014-04-06 08:56:00
1:56 AM,-17.9,-24.0,74,29.90,10.0,South,9.2,-,N/A,,Clear,190,2014-04-06 09:56:00
2:56 AM,-18.9,-24.0,78,29.90,10.0,SSW,10.4,-,N/A,,Overcast,200,2014-04-06 10:56:00
3:08 AM,-18.4,-23.8,76,29.88,10.0,SSW,9.2,-,N/A,,Overcast,200,2014-04-06 11:08:00
3:29 AM,-18.4,-25.6,70,29.88,10.0,South,8.1,-,N/A,,Overcast,190,2014-04-06 11:29:00
3:56 AM,-18.4,-25.6,70,29.88,8.0,South,9.2,-,N/A,,Overcast,180,2014-04-06 11:56:00
4:32 AM,-20.2,-25.6,76,29.88,7.0,South,8.1,-,N/A,,Overcast,190,2014-04-06 12:32:00
4:46 AM,-20.2,-25.6,76,29.88,10.0,South,8.1,-,N/A,,Overcast,190,2014-04-06 12:46:00
4:56 AM,-19.8,-26.0,73,29.90,6.0,South,9.2,-,N/A,,Haze,190,2014-04-06 12:56:00
5:21 AM,-18.4,-25.6,70,29.88,8.0,South,6.9,-,N/A,,Mostly Cloudy,190,2014-04-06 13:21:00
5:37 AM,-18.4,-23.8,76,29.89,7.0,South,8.1,-,N/A,,Overcast,170,2014-04-06 13:37:00
5:56 AM,-17.9,-22.9,78,29.90,4.0,South,8.1,-,0.00,Snow,Light Snow,180,2014-04-06 13:56:00
6:11 AM,-16.6,-22.0,76,29.88,6.0,South,6.9,-,0.00,Snow,Light Snow,190,2014-04-06 14:11:00
6:56 AM,-14.8,-20.2,77,29.89,9.0,South,5.8,-,N/A,,Overcast,190,2014-04-06 14:56:00
7:25 AM,-18.4,-23.8,76,29.89,10.0,South,8.1,-,N/A,,Overcast,180,2014-04-06 15:25:00
7:34 AM,-18.4,-25.6,70,29.89,10.0,South,9.2,-,N/A,,Overcast,180,2014-04-06 15:34:00
7:36 AM,-18.4,-25.6,70,29.89,10.0,South,8.1,-,N/A,,Mostly Cloudy,180,2014-04-06 15:36:00
7:56 AM,-20.9,-26.9,74,29.90,10.0,South,9.2,-,N/A,,Scattered Clouds,180,2014-04-06 15:56:00
8:56 AM,-20.9,-26.0,77,29.90,10.0,South,9.2,-,N/A,,Clear,190,2014-04-06 16:56:00
9:27 AM,-20.2,-25.6,76,29.89,9.0,South,8.1,-,N/A,,Scattered Clouds,190,2014-04-06 17:27:00
9:56 AM,-18.9,-24.9,74,29.91,10.0,South,8.1,-,N/A,,Partly Cloudy,190,2014-04-06 17:56:00
10:56 AM,-17.9,-22.9,78,29.91,8.0,South,8.1,-,N/A,,Scattered Clouds,190,2014-04-06 18:56:00
11:06 AM,-18.4,-23.8,76,29.90,4.0,South,8.1,-,N/A,,Haze,180,2014-04-06 19:06:00
11:30 AM,-16.6,-22.0,76,29.90,10.0,South,8.1,-,N/A,,Mostly Cloudy,190,2014-04-06 19:30:00
11:56 AM,-15.0,-20.9,75,29.92,8.0,South,8.1,-,N/A,,Mostly Cloudy,190,2014-04-06 19:56:00
12:19 PM,-14.8,-18.4,84,29.91,10.0,South,6.9,-,N/A,,Overcast,190,2014-04-06 20:19:00
12:29 PM,-13.0,-18.4,77,29.91,10.0,South,6.9,-,N/A,,Scattered Clouds,190,2014-04-06 20:29:00
12:56 PM,-13.0,-17.9,79,29.92,10.0,SSW,6.9,-,N/A,,Clear,200,2014-04-06 20:56:00
1:56 PM,-8.9,-13.9,79,29.93,10.0,South,5.8,-,N/A,,Clear,190,2014-04-06 21:56:00
2:56 PM,-6.9,-11.9,79,29.94,10.0,SSW,3.5,-,N/A,,Clear,210,2014-04-06 22:56:00
3:56 PM,-4.0,-8.9,80,29.94,10.0,WSW,4.6,-,N/A,,Partly Cloudy,240,2014-04-06 23:56:00
4:56 PM,-4.0,-8.9,80,29.94,10.0,WSW,5.8,-,N/A,,Clear,250,2014-04-07 00:56:00
5:56 PM,-4.0,-8.9,80,29.94,10.0,WSW,5.8,-,N/A,,Clear,250,2014-04-07 01:56:00
6:56 PM,-6.0,-10.8,79,29.94,10.0,SSW,6.9,-,N/A,,Clear,210,2014-04-07 02:56:00
7:46 PM,-7.6,-11.2,84,29.93,10.0,SSW,6.9,-,N/A,,Mostly Cloudy,210,2014-04-07 03:46:00
7:56 PM,-8.0,-11.9,83,29.95,9.0,SSW,6.9,-,N/A,,Mostly Cloudy,210,2014-04-07 03:56:00
8:16 PM,-7.6,-11.2,84,29.93,4.0,SSW,5.8,-,N/A,,Overcast,200,2014-04-07 04:16:00
8:56 PM,-8.9,-13.0,82,29.95,10.0,SSW,8.1,-,N/A,,Overcast,200,2014-04-07 04:56:00
9:14 PM,-9.4,-14.8,77,29.93,10.0,SSW,8.1,-,N/A,,Scattered Clouds,200,2014-04-07 05:14:00
9:38 PM,-11.2,-16.6,77,29.93,10.0,SSW,8.1,-,N/A,,Mostly Cloudy,200,2014-04-07 05:38:00
9:56 PM,-11.9,-17.0,78,29.95,6.0,SSW,8.1,-,N/A,,Haze,200,2014-04-07 05:56:00
10:35 PM,-14.8,-18.4,84,29.93,10.0,South,9.2,-,N/A,,Scattered Clouds,190,2014-04-07 06:35:00
10:47 PM,-14.8,-20.2,77,29.93,6.0,South,9.2,-,N/A,,Haze,190,2014-04-07 06:47:00
10:56 PM,-13.9,-18.9,78,29.95,5.0,SSW,10.4,-,N/A,,Haze,200,2014-04-07 06:56:00
11:06 PM,-14.8,-20.2,77,29.93,6.0,SSW,9.2,-,N/A,,Haze,200,2014-04-07 07:06:00
11:25 PM,-14.8,-20.2,77,29.93,3.0,SSW,10.4,-,N/A,,Haze,200,2014-04-07 07:25:00
11:56 PM,-17.0,-22.9,74,29.95,10.0,South,9.2,-,N/A,,Scattered Clouds,190,2014-04-07 07:56:00